"Timestamp","TZ","WindDir_Mean (deg)","WindSpd_Mean (km/h)","WindSpd_Min (km/h)","WindSpd_Max (km/h)","Temp_Mean (deg)","RH_Mean (%)","MSLP_Mean (hPa)","Rain_Acc (mm)","Rain_Intensity (mm/h)","Hail_Acc (hits/cm2)","Hail_Intensity (hits/cm2hr)","Solar_Mean (W/m2)"
2021/02/11 00:00:00.001,n,192,6.12,5.04,6.84,20.8,71.8,1014.62,0,0,0,0,0.038261
2021/02/11 00:01:00.000,n,153,2.88,2.16,3.24,20.8,71.8,1014.62,0,0,0,0,0.037422
2021/02/11 00:02:00.000,n,140,2.88,2.52,3.6,20.8,71.8,1014.52,0,0,0,0,0.034828
2021/02/11 00:03:00.000,n,160,3.96,3.6,4.68,20.8,71.9,1014.52,0,0,0,0,0.037422
2021/02/11 00:04:00.005,n,127,1.08,0.36,2.16,20.8,71.9,1014.52,0,0,0,0,0.033951
2021/02/11 00:05:00.002,n,205,4.32,2.16,5.76,20.7,71.7,1014.52,0,0,0,0,0.029602
2021/02/11 00:06:00.000,n,171,7.56,7.2,8.28,20.7,71.4,1014.52,0,0,0,0,0.037422
2021/02/11 00:07:00.000,n,211,4.32,3.6,5.76,20.7,71.6,1014.52,0,0,0,0,0.029602
2021/02/11 00:08:00.010,n,191,4.32,3.6,4.68,20.7,71.7,1014.52,0,0,0,0,0.030441
2021/02/11 00:09:00.007,n,113,0.36,0.36,1.08,20.7,71.6,1014.42,0,0,0,0,0.034828
2021/02/11 00:10:00.000,n,216,2.52,2.16,3.24,20.7,71.7,1014.42,0,0,0,0,0.028725
2021/02/11 00:11:00.000,n,215,3.6,2.88,3.96,20.7,71.5,1014.42,0,0,0,0,0.030441
2021/02/11 00:12:00.000,n,212,5.76,5.04,6.84,20.7,71.5,1014.42,0,0,0,0,0.032196
2021/02/11 00:13:00.000,n,138,1.44,0.72,2.52,20.7,71.6,1014.42,0,0,0,0,0.030441
2021/02/11 00:14:00.008,n,152,1.8,0.72,3.24,20.7,71.8,1014.42,0,0,0,0,0.029602
2021/02/11 00:15:00.005,n,195,4.68,3.96,5.04,20.7,71.8,1014.42,0,0,0,0,0.033035
2021/02/11 00:16:00.001,n,203,4.68,3.6,5.04,20.7,71.6,1014.42,0,0,0,0,0.033951
2021/02/11 00:17:00.000,n,194,5.4,3.96,6.84,20.7,71.6,1014.42,0,0,0,0,0.027809
2021/02/11 00:18:00.012,n,171,6.48,6.12,7.2,20.7,71.5,1014.42,0,0,0,0,0.033951
2021/02/11 00:19:00.000,n,188,6.84,5.4,9.36,20.6,71.3,1014.42,0,0,0,0,0.031319
2021/02/11 00:20:00.000,n,200,6.48,5.76,6.84,20.6,71.1,1014.42,0,0,0,0,0.028725
2021/02/11 00:21:00.004,n,188,6.12,5.76,6.48,20.6,71,1014.42,0,0,0,0,0.029602
2021/02/11 00:22:00.002,n,170,2.52,2.16,3.24,20.6,71.2,1014.42,0,0,0,0,0.028725
2021/02/11 00:23:00.000,n,207,5.04,4.68,6.12,20.6,71.3,1014.42,0,0,0,0,0.031319
2021/02/11 00:24:00.000,n,140,2.52,2.52,2.88,20.6,71.4,1014.42,0,0,0,0,0.028725
2021/02/11 00:25:00.010,n,215,2.88,2.52,3.24,20.6,71.3,1014.42,0,0,0,0,0.027809
2021/02/11 00:26:00.007,n,95,0.72,0,1.08,20.6,71.4,1014.42,0,0,0,0,0.027809
2021/02/11 00:27:00.005,n,247,2.16,1.44,2.88,20.6,71.7,1014.42,0,0,0,0,0.02697
2021/02/11 00:28:00.000,n,256,2.52,2.16,2.88,20.6,71.6,1014.42,0,0,0,0,0.025253
2021/02/11 00:29:00.000,n,215,1.44,1.08,1.8,20.6,71.7,1014.42,0,0,0,0,0.028725
2021/02/11 00:30:00.000,n,226,1.8,1.44,2.16,20.6,71.7,1014.42,0,0,0,0,0.020027
2021/02/11 00:31:00.000,n,161,5.04,4.32,5.4,20.6,71.3,1014.42,0,0,0,0,0.029602
2021/02/11 00:32:00.008,n,143,5.4,3.96,5.76,20.6,71.2,1014.42,0,0,0,0,0.027809
2021/02/11 00:33:00.005,n,193,3.96,3.24,4.68,20.5,71.3,1014.42,0,0,0,0,0.027809
2021/02/11 00:34:00.000,n,151,5.76,5.04,6.48,20.5,71.2,1014.42,0,0,0,0,0.037384
2021/02/11 00:35:00.013,n,171,1.44,0.36,3.24,20.5,71.3,1014.32,0,0,0,0,0.032158
2021/02/11 00:36:00.010,n,186,3.24,2.52,3.6,20.5,71.4,1014.32,0,0,0,0,0.029564
2021/02/11 00:37:00.000,n,199,4.68,4.32,5.04,20.5,71.4,1014.32,0,0,0,0,0.033035
2021/02/11 00:38:00.000,n,142,2.52,1.08,3.6,20.5,71.5,1014.32,0,0,0,0,0.029564
2021/02/11 00:39:00.001,n,173,5.76,5.76,6.48,20.5,71.4,1014.32,0,0,0,0,0.029564
2021/02/11 00:40:00.000,n,182,3.96,3.6,4.32,20.5,71.4,1014.32,0,0,0,0,0.026093
2021/02/11 00:41:00.000,n,160,4.68,3.6,5.4,20.5,71.5,1014.32,0,0,0,0,0.03479
2021/02/11 00:42:00.008,n,175,2.52,1.8,2.88,20.5,71.5,1014.32,0,0,0,0,0.026093
2021/02/11 00:43:00.005,n,195,4.32,4.32,5.04,20.5,71.6,1014.22,0,0,0,0,0.027809
2021/02/11 00:44:00.003,n,260,2.88,2.16,3.6,20.5,71.8,1014.22,0,0,0,0,0.026932
2021/02/11 00:45:00.000,n,176,5.4,2.52,7.2,20.5,71.7,1014.22,0,0,0,0,0.031319
2021/02/11 00:46:00.000,n,174,4.32,2.88,5.4,20.5,71.5,1014.22,0,0,0,0,0.025215
2021/02/11 00:47:00.000,n,202,6.84,5.76,7.56,20.5,71.6,1014.22,0,0,0,0,0.026093
2021/02/11 00:48:00.000,n,190,4.32,4.32,4.68,20.5,71.7,1014.22,0,0,0,0,0.025215
2021/02/11 00:49:00.006,n,185,4.68,3.96,5.04,20.5,71.8,1014.22,0,0,0,0,0.024338
2021/02/11 00:50:00.004,n,60,0.36,0,0.72,20.5,71.9,1014.12,0,0,0,0,0.027809
2021/02/11 00:51:00.001,n,187,7.56,7.2,7.92,20.4,71.8,1014.12,0,0,0,0,0.024338
2021/02/11 00:52:00.000,n,170,4.68,3.96,5.04,20.4,71.9,1014.12,0,0,0,0,0.026932
2021/02/11 00:53:00.011,n,194,5.04,3.96,5.76,20.4,72.1,1014.12,0,0,0,0,0.025215
2021/02/11 00:54:00.008,n,235,2.52,1.8,3.96,20.4,71.9,1014.12,0,0,0,0,0.028687
2021/02/11 00:55:00.000,n,172,2.16,1.44,2.88,20.4,72.1,1014.12,0,0,0,0,0.026932
2021/02/11 00:56:00.003,n,214,1.8,0.72,3.24,20.4,72.2,1014.02,0,0,0,0,0.028687
2021/02/11 00:57:00.000,n,201,3.96,3.6,4.68,20.4,72.4,1014.02,0,0,0,0,0.022583
2021/02/11 00:58:00.000,n,180,3.24,2.52,4.32,20.4,72.5,1014.02,0,0,0,0,0.026932
2021/02/11 00:59:00.000,n,199,5.4,5.04,5.76,20.4,72.6,1014.02,0,0,0,0,0.026093
2021/02/11 01:00:00.007,n,195,3.96,3.6,4.68,20.4,72.8,1014.02,0,0,0,0,0.024338
2021/02/11 01:01:00.004,n,183,6.48,6.12,7.2,20.3,72.9,1013.92,0,0,0,0,0.020866
2021/02/11 01:02:00.001,n,219,2.16,1.8,2.88,20.3,73,1013.92,0,0,0,0,0.025215
2021/02/11 01:03:00.015,n,189,6.48,6.12,6.84,20.3,72.9,1013.92,0,0,0,0,0.021744
2021/02/11 01:04:00.000,n,208,6.48,5.76,6.84,20.3,72.9,1013.92,0,0,0,0,0.02346
2021/02/11 01:05:00.000,n,178,3.24,2.52,3.96,20.3,73,1013.92,0,0,0,0,0.022583
2021/02/11 01:06:00.000,n,182,4.32,3.96,5.76,20.2,73.1,1013.92,0,0,0,0,0.018234
2021/02/11 01:07:00.005,n,183,1.44,1.08,2.16,20.2,73.2,1013.92,0,0,0,0,0.022583
2021/02/11 01:08:00.002,n,190,5.76,5.04,7.56,20.2,73.3,1013.92,0,0,0,0,0.025215
2021/02/11 01:09:00.000,n,167,5.04,3.96,5.76,20.2,73.2,1013.82,0,0,0,0,0.019989
2021/02/11 01:10:00.000,n,186,5.4,5.04,5.76,20.2,73.2,1013.82,0,0,0,0,0.020866
2021/02/11 01:11:00.009,n,156,3.6,3.6,3.96,20.2,73.3,1013.82,0,0,0,0,0.018234
2021/02/11 01:12:00.007,n,181,1.8,1.44,2.52,20.2,73.2,1013.82,0,0,0,0,0.019989
2021/02/11 01:13:00.000,n,227,0.36,0,0.72,20.1,73.3,1013.82,0,0,0,0,0.018234
2021/02/11 01:14:00.000,n,154,2.16,2.16,2.88,20.1,73.3,1013.82,0,0,0,0,0.022583
2021/02/11 01:15:00.000,n,168,4.68,3.96,5.4,20.1,73.3,1013.82,0,0,0,0,0.02697
2021/02/11 01:16:00.000,n,177,2.52,1.8,3.24,20.1,73.3,1013.72,0,0,0,0,0.033951
2021/02/11 01:17:00.004,n,150,4.68,3.6,7.2,20.1,73.4,1013.72,0,0,0,0,0.029602
2021/02/11 01:18:00.001,n,214,5.4,4.68,5.76,20.1,73,1013.72,0,0,0,0,0.033951
2021/02/11 01:19:00.000,n,117,1.44,0.36,2.16,20.1,73.3,1013.72,0,0,0,0,0.031319
2021/02/11 01:20:00.011,n,156,2.52,1.8,3.24,20.1,73.3,1013.72,0,0,0,0,0.032196
2021/02/11 01:21:00.009,n,181,1.8,1.44,2.16,20.1,73.2,1013.72,0,0,0,0,0.033073
2021/02/11 01:22:00.000,n,247,0.72,0.36,1.08,20.1,73.3,1013.62,0,0,0,0,0.032196
2021/02/11 01:23:00.000,n,278,3.24,2.88,3.96,20.1,73.5,1013.62,0,0,0,0,0.027847
2021/02/11 01:24:00.000,n,262,1.44,0.36,2.88,20.2,74.4,1013.62,0,0,0,0,0.031319
2021/02/11 01:25:00.000,n,262,3.24,2.52,3.6,20.2,73.9,1013.62,0,0,0,0,0.02697
2021/02/11 01:26:00.000,n,281,3.24,3.24,3.6,20.2,73.8,1013.62,0,0,0,0,0.026093
2021/02/11 01:27:00.008,n,242,1.8,1.44,2.16,20.2,73.4,1013.62,0,0,0,0,0.032196
2021/02/11 01:28:00.005,n,34,0.72,0.72,0.72,20.2,73.7,1013.62,0,0,0,0,0.02697
2021/02/11 01:29:00.003,n,257,1.8,1.44,1.8,20.2,73.6,1013.62,0,0,0,0,0.032196
2021/02/11 01:30:00.001,n,185,1.44,1.08,1.8,20.1,73.3,1013.62,0,0,0,0,0.02697
2021/02/11 01:31:00.000,n,256,3.6,3.24,3.96,20.1,73.3,1013.62,0,0,0,0,0.031319
2021/02/11 01:32:00.000,n,268,3.24,2.88,3.96,20.1,73.4,1013.62,0,0,0,0,0.031319
2021/02/11 01:33:00.000,n,247,2.16,1.8,2.52,20.1,73.5,1013.62,0,0,0,0,0.029602
2021/02/11 01:34:00.000,n,231,1.44,1.44,1.44,20.1,73.4,1013.62,0,0,0,0,0.025253
2021/02/11 01:35:00.005,n,272,4.68,3.96,4.68,20.1,74.2,1013.62,0,0,0,0,0.02697
2021/02/11 01:36:00.002,n,225,0.36,0,1.44,20.2,74.1,1013.62,0,0,0,0,0.029602
2021/02/11 01:37:00.000,n,215,0.36,0.36,1.08,20.2,73.7,1013.62,0,0,0,0,0.028725
2021/02/11 01:38:00.000,n,269,1.8,1.44,2.16,20.2,73.5,1013.62,0,0,0,0,0.02697
2021/02/11 01:39:00.011,n,244,0.72,0.36,0.72,20.1,73.6,1013.62,0,0,0,0,0.029602
2021/02/11 01:40:00.000,n,217,0.36,0.36,0.72,20.2,73.7,1013.62,0,0,0,0,0.027847
2021/02/11 01:41:00.000,n,351,2.16,1.8,2.16,20.2,73.6,1013.62,0,0,0,0,0.029602
2021/02/11 01:42:00.003,n,247,1.8,1.44,2.16,20.2,73.4,1013.62,0,0,0,0,0.02697
2021/02/11 01:43:00.000,n,252,1.8,1.44,2.52,20.2,73.1,1013.62,0,0,0,0,0.028725
2021/02/11 01:44:00.000,n,239,2.52,2.16,3.24,20.2,73.2,1013.62,0,0,0,0,0.026093
2021/02/11 01:45:00.000,n,279,5.04,4.68,5.04,20.2,72.7,1013.62,0,0,0,0,0.029602
2021/02/11 01:46:00.008,n,268,3.6,3.24,3.96,20.1,72.7,1013.62,0,0,0,0,0.02697
2021/02/11 01:47:00.005,n,292,1.8,1.08,3.6,20.2,73.3,1013.62,0,0,0,0,0.028725
2021/02/11 01:48:00.002,n,267,2.52,2.16,2.88,20.2,72.8,1013.62,0,0,0,0,0.02697
2021/02/11 01:49:00.000,n,269,4.68,4.32,5.04,20.2,72.8,1013.62,0,0,0,0,0.024376
2021/02/11 01:50:00.000,n,265,2.52,2.16,2.88,20.2,72.7,1013.62,0,0,0,0,0.028725
2021/02/11 01:51:00.000,n,266,4.68,3.6,5.04,20.2,72.7,1013.62,0,0,0,0,0.032196
2021/02/11 01:52:00.007,n,254,3.6,2.88,3.6,20.2,72.8,1013.62,0,0,0,0,0.034828
2021/02/11 01:53:00.004,n,272,4.68,4.32,4.68,20.2,73.5,1013.62,0,0,0,0,0.02697
2021/02/11 01:54:00.001,n,253,2.88,2.16,3.24,20.3,73.1,1013.62,0,0,0,0,0.030441
2021/02/11 01:55:00.000,n,275,3.96,2.52,4.68,20.2,73.4,1013.62,0,0,0,0,0.027847
2021/02/11 01:56:00.012,n,259,3.24,2.52,3.6,20.3,74.3,1013.62,0,0,0,0,0.027847
2021/02/11 01:57:00.009,n,272,4.68,4.32,5.4,20.3,73.6,1013.62,0,0,0,0,0.027847
2021/02/11 01:58:00.000,n,254,2.88,2.16,3.6,20.3,72.9,1013.62,0,0,0,0,0.032196
2021/02/11 01:59:00.003,n,276,2.16,1.08,2.88,20.2,73,1013.62,0,0,0,0,0.028725
2021/02/11 02:00:00.001,n,272,1.8,0.72,2.52,20.2,73,1013.62,0,0,0,0,0.028725
2021/02/11 02:01:00.000,n,272,5.76,5.4,6.48,20.2,72.6,1013.52,0,0,0,0,0.033951
2021/02/11 02:02:00.000,n,266,4.32,4.32,5.04,20.2,72.7,1013.52,0,0,0,0,0.032196
2021/02/11 02:03:00.009,n,271,2.52,1.8,2.88,20.2,73.5,1013.52,0,0,0,0,0.032196
2021/02/11 02:04:00.006,n,289,2.52,2.16,3.24,20.2,73.4,1013.52,0,0,0,0,0.033073
2021/02/11 02:05:00.004,n,274,3.24,2.52,3.6,20.2,74.1,1013.52,0,0,0,0,0.035667
2021/02/11 02:06:00.001,n,275,3.96,3.6,4.68,20.3,74.1,1013.52,0,0,0,0,0.035667
2021/02/11 02:07:00.000,n,291,3.6,2.88,4.32,20.3,74.3,1013.52,0,0,0,0,0.030441
2021/02/11 02:08:00.000,n,266,3.6,3.6,3.96,20.4,73.4,1013.52,0,0,0,0,0.034828
2021/02/11 02:09:00.000,n,280,4.68,4.32,5.04,20.3,73.2,1013.52,0,0,0,0,0.035667
2021/02/11 02:10:00.007,n,282,1.8,0.72,3.24,20.3,73.6,1013.42,0,0,0,0,0.032196
2021/02/11 02:11:00.004,n,263,4.68,4.32,4.68,20.3,72.8,1013.42,0,0,0,0,0.031319
2021/02/11 02:12:00.001,n,255,3.24,2.52,4.32,20.2,72.8,1013.42,0,0,0,0,0.034828
2021/02/11 02:13:00.000,n,300,2.88,2.16,3.6,20.2,72.8,1013.42,0,0,0,0,0.036545
2021/02/11 02:14:00.014,n,301,2.88,2.52,3.96,20.2,73.3,1013.42,0,0,0,0,0.034828
2021/02/11 02:15:00.013,n,149,1.08,0.72,1.44,20.2,73,1013.32,0,0,0,0,0.0383
2021/02/11 02:16:00.000,n,308,1.08,0.72,1.08,20.2,73.1,1013.32,0,0,0,0,0.031319
2021/02/11 02:17:00.000,n,256,1.44,0.72,1.8,20.2,73,1013.32,0,0,0,0,0.030441
2021/02/11 02:18:00.004,n,340,1.8,1.08,2.52,20.2,72.9,1013.32,0,0,0,0,0.033951
2021/02/11 02:19:00.001,n,176,1.08,0.72,1.8,20.3,73,1013.32,0,0,0,0,0.033073
2021/02/11 02:20:00.000,n,270,1.8,1.08,2.88,20.3,73.3,1013.32,0,0,0,0,0.036545
2021/02/11 02:21:00.000,n,266,2.16,1.44,2.88,20.3,72.8,1013.32,0,0,0,0,0.033073
2021/02/11 02:22:00.008,n,259,2.88,2.16,3.24,20.3,72.6,1013.32,0,0,0,0,0.035667
2021/02/11 02:23:00.005,n,194,7.2,6.48,7.92,20.3,72.6,1013.32,0,0,0,0,0.036545
2021/02/11 02:24:00.002,n,144,2.88,2.16,3.6,20.3,72.3,1013.22,0,0,0,0,0.039177
2021/02/11 02:25:00.000,n,58,1.08,0.72,1.44,20.3,72.5,1013.22,0,0,0,0,0.034828
2021/02/11 02:26:00.000,n,247,1.08,0.72,2.16,20.4,72.5,1013.22,0,0,0,0,0.0383
2021/02/11 02:27:00.000,n,295,3.96,2.88,5.76,20.4,72.6,1013.22,0,0,0,0,0.040894
2021/02/11 02:28:00.007,n,277,1.08,0.72,1.44,20.4,72.6,1013.22,0,0,0,0,0.040016
2021/02/11 02:29:00.004,n,251,0.36,0,0.36,20.5,73.2,1013.12,0,0,0,0,0.040016
2021/02/11 02:30:00.001,n,223,1.08,1.08,1.44,20.5,72.4,1013.12,0,0,0,0,0.029602
2021/02/11 02:31:00.000,n,278,4.32,3.96,5.04,20.5,72.3,1013.12,0,0,0,0,0.042648
2021/02/11 02:32:00.011,n,300,5.76,5.4,6.12,20.5,72,1013.12,0,0,0,0,0.035667
2021/02/11 02:33:00.009,n,138,2.16,1.44,2.16,20.5,71.8,1013.12,0,0,0,0,0.037422
2021/02/11 02:34:00.000,n,239,2.52,1.8,2.88,20.5,71.7,1013.12,0,0,0,0,0.042648
2021/02/11 02:35:00.002,n,217,3.96,3.6,4.32,20.5,71.6,1013.12,0,0,0,0,0.041771
2021/02/11 02:36:00.000,n,203,0.72,0.36,1.8,20.4,71.6,1013.02,0,0,0,0,0.040894
2021/02/11 02:37:00.000,n,206,2.52,1.8,2.88,20.4,71.6,1013.02,0,0,0,0,0.040894
2021/02/11 02:38:00.000,n,225,1.08,0.72,2.16,20.4,71.7,1013.02,0,0,0,0,0.043526
2021/02/11 02:39:00.007,n,150,0.72,0,1.8,20.4,71.7,1013.02,0,0,0,0,0.039177
2021/02/11 02:40:00.005,n,25,0.72,0.36,1.44,20.4,71.8,1013.02,0,0,0,0,0.040894
2021/02/11 02:41:00.002,n,108,3.24,2.52,4.32,20.4,71.5,1013.02,0,0,0,0,0.040894
2021/02/11 02:42:00.000,n,229,4.32,3.6,4.32,20.4,71.4,1013.02,0,0,0,0,0.042648
2021/02/11 02:43:00.000,n,205,2.16,1.44,3.24,20.4,71.4,1013.02,0,0,0,0,0.042648
2021/02/11 02:44:00.000,n,184,6.84,5.76,7.2,20.4,71.2,1013.02,0,0,0,0,0.044403
2021/02/11 02:45:00.000,n,174,7.2,6.48,8.28,20.4,71.1,1013.02,0,0,0,0,0.045242
2021/02/11 02:46:00.004,n,189,6.12,4.68,7.2,20.4,71,1013.02,0,0,0,0,0.040016
2021/02/11 02:47:00.001,n,224,2.52,0.72,3.96,20.4,71.1,1013.02,0,0,0,0,0.041771
2021/02/11 02:48:00.000,n,289,0.72,0.36,1.44,20.4,71,1013.02,0,0,0,0,0.039177
2021/02/11 02:49:00.011,n,183,7.56,6.48,8.28,20.4,70.7,1013.02,0,0,0,0,0.040894
2021/02/11 02:50:00.009,n,196,5.76,5.4,6.12,20.4,70.8,1013.02,0,0,0,0,0.044403
2021/02/11 02:51:00.006,n,170,4.32,3.6,4.68,20.4,70.8,1013.02,0,0,0,0,0.045242
2021/02/11 02:52:00.000,n,176,5.4,4.68,6.12,20.4,70.8,1013.02,0,0,0,0,0.045242
2021/02/11 02:53:00.000,n,200,2.16,1.8,2.88,20.4,70.8,1013.02,0,0,0,0,0.044403
2021/02/11 02:54:00.000,n,176,6.84,5.76,8.28,20.4,70.4,1013.02,0,0,0,0,0.0383
2021/02/11 02:55:00.000,n,178,5.76,4.32,7.2,20.4,70.4,1013.02,0,0,0,0,0.045242
2021/02/11 02:56:00.009,n,186,7.2,6.84,7.56,20.4,70.4,1013.02,0,0,0,0,0.045242
2021/02/11 02:57:00.007,n,184,4.32,3.96,5.04,20.4,70.5,1013.02,0,0,0,0,0.040894
2021/02/11 02:58:00.006,n,168,4.68,2.88,5.76,20.4,70.5,1013.02,0,0,0,0,0.035667
2021/02/11 02:59:00.003,n,160,2.16,1.44,3.24,20.4,70.5,1013.02,0,0,0,0,0.039177
2021/02/11 03:00:00.000,n,143,3.24,1.08,3.96,20.4,70.4,1013.12,0,0,0,0,0.042648
2021/02/11 03:01:00.000,n,164,2.16,0.72,3.6,20.4,70.4,1013.12,0,0,0,0,0.0383
2021/02/11 03:02:00.000,n,139,1.8,1.08,2.52,20.4,70.5,1013.12,0,0,0,0,0.042648
2021/02/11 03:03:00.000,n,256,3.6,3.24,3.6,20.4,70.6,1013.12,0,0,0,0,0.042648
2021/02/11 03:04:00.000,n,160,3.24,2.88,3.6,20.4,70.6,1013.12,0,0,0,0,0.041771
2021/02/11 03:05:00.004,n,253,2.52,1.8,2.52,20.4,70.7,1013.12,0,0,0,0,0.040894
2021/02/11 03:06:00.002,n,254,1.8,1.44,1.8,20.4,70.9,1013.12,0,0,0,0,0.039177
2021/02/11 03:07:00.000,n,149,1.44,1.08,1.8,20.4,70.9,1013.12,0,0,0,0,0.045242
2021/02/11 03:08:00.013,n,153,5.76,3.6,6.84,20.4,70.8,1013.12,0,0,0,0,0.040894
2021/02/11 03:09:00.010,n,226,3.6,2.88,4.32,20.4,70.2,1013.12,0,0,0,0,0.037422
2021/02/11 03:10:00.000,n,166,5.4,5.04,5.76,20.4,70.5,1013.22,0,0,0,0,0.040016
2021/02/11 03:11:00.000,n,185,2.16,1.44,2.88,20.4,70.5,1013.22,0,0,0,0,0.040894
2021/02/11 03:12:00.001,n,154,3.24,2.88,3.6,20.3,70.6,1013.22,0,0,0,0,0.040894
2021/02/11 03:13:00.000,n,198,3.96,3.24,4.68,20.3,70.7,1013.22,0,0,0,0,0.046997
2021/02/11 03:14:00.000,n,137,1.44,1.08,2.52,20.3,70.8,1013.22,0,0,0,0,0.043526
2021/02/11 03:15:00.010,n,169,2.16,0.72,3.96,20.3,70.8,1013.22,0,0,0,0,0.0383
2021/02/11 03:16:00.007,n,158,6.12,5.4,6.84,20.3,70.6,1013.22,0,0,0,0,0.039177
2021/02/11 03:17:00.005,n,207,2.52,1.8,3.6,20.3,70.5,1013.22,0,0,0,0,0.036545
2021/02/11 03:18:00.003,n,153,2.88,2.52,3.6,20.3,70.6,1013.32,0,0,0,0,0.039177
2021/02/11 03:19:00.000,n,111,2.52,0.36,2.88,20.2,70.6,1013.32,0,0,0,0,0.036545
2021/02/11 03:20:00.000,n,132,3.96,1.8,5.76,20.2,70.5,1013.22,0,0,0,0,0.032196
2021/02/11 03:21:00.000,n,140,1.44,0.72,1.8,20.2,70.7,1013.32,0,0,0,0,0.037422
2021/02/11 03:22:00.000,n,150,3.96,3.6,5.04,20.2,70.6,1013.32,0,0,0,0,0.032196
2021/02/11 03:23:00.006,n,152,6.12,5.76,6.84,20.2,70.6,1013.32,0,0,0,0,0.035667
2021/02/11 03:24:00.004,n,122,7.56,6.84,7.92,20.2,70.6,1013.32,0,0,0,0,0.033951
2021/02/11 03:25:00.001,n,133,6.48,6.12,6.84,20.1,70.6,1013.32,0,0,0,0,0.037422
2021/02/11 03:26:00.000,n,156,5.04,4.68,5.04,20.1,70.7,1013.32,0,0,0,0,0.034828
2021/02/11 03:27:00.012,n,150,3.6,2.88,4.32,20.1,70.8,1013.32,0,0,0,0,0.039177
2021/02/11 03:28:00.000,n,151,7.56,6.84,8.28,20.1,70.8,1013.32,0,0,0,0,0.031319
2021/02/11 03:29:00.000,n,152,6.12,4.68,7.2,20.1,70.9,1013.32,0,0,0,0,0.030441
2021/02/11 03:30:00.003,n,176,1.8,1.44,2.16,20.1,70.9,1013.32,0,0,0,0,0.028725
2021/02/11 03:31:00.000,n,153,5.4,4.32,6.12,20.1,71,1013.32,0,0,0,0,0.039177
2021/02/11 03:32:00.000,n,129,2.16,0.72,2.88,20.1,71,1013.32,0,0,0,0,0.032196
2021/02/11 03:33:00.000,n,139,3.96,3.6,4.32,20.1,71.1,1013.32,0,0,0,0,0.029602
2021/02/11 03:34:00.007,n,155,4.68,4.32,5.04,20.1,71.2,1013.32,0,0,0,0,0.028725
2021/02/11 03:35:00.005,n,111,3.24,3.24,3.6,20.1,71.3,1013.32,0,0,0,0,0.029602
2021/02/11 03:36:00.002,n,99,2.88,2.52,3.24,20.1,71.4,1013.32,0,0,0,0,0.028725
2021/02/11 03:37:00.000,n,213,2.52,2.16,3.24,20,71.4,1013.32,0,0,0,0,0.02697
2021/02/11 03:38:00.000,n,222,3.6,2.88,3.96,20,71.5,1013.32,0,0,0,0,0.028725
2021/02/11 03:39:00.000,n,198,2.16,1.8,2.52,20,71.6,1013.32,0,0,0,0,0.029602
2021/02/11 03:40:00.000,n,182,1.08,0,1.44,20,71.5,1013.32,0,0,0,0,0.028725
2021/02/11 03:41:00.006,n,187,4.68,3.96,5.04,20.1,71.4,1013.32,0,0,0,0,0.031319
2021/02/11 03:42:00.003,n,187,4.68,3.6,5.04,20.1,71.3,1013.32,0,0,0,0,0.027847
2021/02/11 03:43:00.000,n,199,4.32,3.96,4.68,20.1,71.3,1013.32,0,0,0,0,0.028725
2021/02/11 03:44:00.014,n,178,2.88,2.16,3.24,20.1,71.1,1013.32,0,0,0,0,0.033073
2021/02/11 03:45:00.012,n,152,5.76,5.4,6.12,20.1,71.2,1013.32,0,0,0,0,0.030441
2021/02/11 03:46:00.000,n,193,4.32,3.24,5.76,20.1,71,1013.32,0,0,0,0,0.028725
2021/02/11 03:47:00.000,n,157,4.68,3.24,5.76,20.1,71,1013.32,0,0,0,0,0.031319
2021/02/11 03:48:00.002,n,166,4.68,4.32,4.68,20.1,71.1,1013.32,0,0,0,0,0.031319
2021/02/11 03:49:00.000,n,198,5.76,5.4,6.12,20.1,70.9,1013.32,0,0,0,0,0.031319
2021/02/11 03:50:00.000,n,132,2.16,1.44,3.24,20.1,71,1013.32,0,0,0,0,0.026093
2021/02/11 03:51:00.000,n,178,5.76,5.76,6.12,20.1,71,1013.32,0,0,0,0,0.028725
2021/02/11 03:52:00.008,n,180,6.84,6.48,7.2,20.1,70.8,1013.32,0,0,0,0,0.028725
2021/02/11 03:53:00.006,n,151,4.68,1.8,5.76,20.1,71,1013.32,0,0,0,0,0.028725
2021/02/11 03:54:00.002,n,165,6.48,5.76,6.84,20.1,71.2,1013.32,0,0,0,0,0.027847
2021/02/11 03:55:00.000,n,159,4.32,3.96,4.68,20.1,71,1013.32,0,0,0,0,0.028725
2021/02/11 03:56:00.000,n,195,6.48,5.76,7.56,20.1,71,1013.32,0,0,0,0,0.02697
2021/02/11 03:57:00.000,n,153,2.88,2.52,3.96,20.1,71.1,1013.32,0,0,0,0,0.029602
2021/02/11 03:58:00.000,n,167,5.04,4.32,6.48,20.2,71,1013.32,0,0,0,0,0.026093
2021/02/11 03:59:00.005,n,124,5.04,3.96,6.84,20.2,71,1013.32,0,0,0,0,0.025253
2021/02/11 04:00:00.002,n,156,5.04,3.24,6.12,20.2,71,1013.32,0,0,0,0,0.026093
2021/02/11 04:01:00.000,n,201,5.76,5.04,6.48,20.2,71,1013.32,0,0,0,0,0.027847
2021/02/11 04:02:00.014,n,201,4.32,2.16,5.76,20.2,70.9,1013.32,0,0,0,0,0.028725
2021/02/11 04:03:00.011,n,200,3.96,3.6,5.04,20.2,70.9,1013.32,0,0,0,0,0.031319
2021/02/11 04:04:00.000,n,174,5.76,3.96,7.92,20.2,70.9,1013.42,0,0,0,0,0.031319
2021/02/11 04:05:00.000,n,186,8.64,7.92,9.72,20.2,70.8,1013.42,0,0,0,0,0.035667
2021/02/11 04:06:00.002,n,175,7.56,5.76,8.64,20.2,70.6,1013.42,0,0,0,0,0.026093
2021/02/11 04:07:00.000,n,170,6.48,6.12,7.2,20.2,70.6,1013.42,0,0,0,0,0.029602
2021/02/11 04:08:00.000,n,174,9,7.56,9.72,20.2,70.5,1013.42,0,0,0,0,0.030441
2021/02/11 04:09:00.000,n,158,4.68,3.6,5.4,20.2,70.7,1013.42,0,0,0,0,0.024376
2021/02/11 04:10:00.010,n,189,4.68,3.96,5.4,20.2,70.5,1013.42,0,0,0,0,0.02697
2021/02/11 04:11:00.007,n,256,1.08,0.36,2.52,20.2,70.6,1013.42,0,0,0,0,0.030441
2021/02/11 04:12:00.004,n,172,3.6,3.24,3.96,20.2,70.6,1013.42,0,0,0,0,0.027847
2021/02/11 04:13:00.001,n,163,10.08,9.72,10.440002,20.2,70.4,1013.42,0,0,0,0,0.031319
2021/02/11 04:14:00.000,n,199,5.04,4.32,5.4,20.2,70.5,1013.42,0,0,0,0,0.029602
2021/02/11 04:15:00.000,n,208,2.52,2.16,2.88,20.2,70.5,1013.42,0,0,0,0,0.030441
2021/02/11 04:16:00.000,n,168,5.04,4.32,5.76,20.2,70.3,1013.42,0,0,0,0,0.025253
2021/02/11 04:17:00.006,n,214,1.8,1.08,4.32,20.2,70.3,1013.42,0,0,0,0,0.029602
2021/02/11 04:18:00.003,n,152,5.76,2.16,7.2,20.2,70.3,1013.52,0,0,0,0,0.032196
2021/02/11 04:19:00.001,n,190,7.56,7.2,7.56,20.2,70.2,1013.52,0,0,0,0,0.029602
2021/02/11 04:20:00.000,n,216,5.04,4.32,5.76,20.2,70.1,1013.52,0,0,0,0,0.031319
2021/02/11 04:21:00.013,n,191,7.56,7.2,7.92,20.2,70.1,1013.52,0,0,0,0,0.02697
2021/02/11 04:22:00.000,n,195,4.68,3.6,5.4,20.2,70.2,1013.52,0,0,0,0,0.02697
2021/02/11 04:23:00.000,n,147,2.16,1.8,2.52,20.2,70.3,1013.52,0,0,0,0,0.028725
2021/02/11 04:24:00.004,n,201,3.6,3.24,3.96,20.2,70.2,1013.52,0,0,0,0,0.032196
2021/02/11 04:25:00.002,n,181,7.56,6.48,8.64,20.2,70.2,1013.52,0,0,0,0,0.027847
2021/02/11 04:26:00.000,n,206,6.12,5.4,6.12,20.2,70.2,1013.52,0,0,0,0,0.031319
2021/02/11 04:27:00.000,n,160,6.84,6.48,7.2,20.2,70.2,1013.52,0,0,0,0,0.033073
2021/02/11 04:28:00.009,n,147,4.68,4.68,5.04,20.2,70.3,1013.52,0,0,0,0,0.030441
2021/02/11 04:29:00.006,n,163,4.32,3.96,4.32,20.2,70.4,1013.62,0,0,0,0,0.030441
2021/02/11 04:30:00.005,n,307,1.08,0.36,1.44,20.2,70.5,1013.62,0,0,0,0,0.028725
2021/02/11 04:31:00.000,n,171,3.24,2.88,3.96,20.2,70.4,1013.62,0,0,0,0,0.033073
2021/02/11 04:32:00.000,n,224,4.68,4.68,5.4,20.2,70.4,1013.62,0,0,0,0,0.029602
2021/02/11 04:33:00.000,n,169,4.32,3.96,4.68,20.2,70.5,1013.62,0,0,0,0,0.030441
2021/02/11 04:34:00.000,n,198,2.16,2.16,2.16,20.2,70.6,1013.62,0,0,0,0,0.033073
2021/02/11 04:35:00.007,n,156,3.24,0.72,4.68,20.2,70.5,1013.62,0,0,0,0,0.030441
2021/02/11 04:36:00.004,n,222,4.32,3.6,4.32,20.2,70.5,1013.62,0,0,0,0,0.032196
2021/02/11 04:37:00.001,n,201,2.16,1.44,2.52,20.2,70.6,1013.62,0,0,0,0,0.029602
2021/02/11 04:38:00.000,n,178,4.32,3.6,5.4,20.2,70.6,1013.62,0,0,0,0,0.030441
2021/02/11 04:39:00.011,n,208,3.24,2.88,3.6,20.2,70.6,1013.62,0,0,0,0,0.030441
2021/02/11 04:40:00.000,n,150,2.88,2.52,3.24,20.2,70.5,1013.62,0,0,0,0,0.026093
2021/02/11 04:41:00.000,n,208,5.04,4.68,5.76,20.2,70.5,1013.62,0,0,0,0,0.034828
2021/02/11 04:42:00.003,n,186,6.48,6.12,7.2,20.2,70.3,1013.62,0,0,0,0,0.0383
2021/02/11 04:43:00.000,n,195,4.32,3.6,5.4,20.2,70.5,1013.62,0,0,0,0,0.033951
2021/02/11 04:44:00.000,n,149,3.96,3.24,4.32,20.2,70.3,1013.72,0,0,0,0,0.033073
2021/02/11 04:45:00.000,n,274,4.32,4.32,4.68,20.2,70.4,1013.72,0,0,0,0,0.030441
2021/02/11 04:46:00.008,n,240,2.16,1.8,2.16,20.2,70.9,1013.72,0,0,0,0,0.032196
2021/02/11 04:47:00.005,n,195,2.52,2.52,2.88,20.2,70.6,1013.72,0,0,0,0,0.033073
2021/02/11 04:48:00.002,n,220,0.72,0.36,0.72,20.2,70.6,1013.72,0,0,0,0,0.028725
2021/02/11 04:49:00.000,n,200,0.72,0.36,1.08,20.2,70.6,1013.72,0,0,0,0,0.030441
2021/02/11 04:50:00.000,n,225,2.52,2.16,2.52,20.2,70.6,1013.72,0,0,0,0,0.032196
2021/02/11 04:51:00.000,n,312,1.08,0.36,1.44,20.2,70.9,1013.72,0,0,0,0,0.035667
2021/02/11 04:52:00.000,n,269,3.6,2.88,4.32,20.3,71.4,1013.72,0,0,0,0,0.036545
2021/02/11 04:53:00.006,n,181,1.08,0.72,1.08,20.3,71.4,1013.72,0,0,0,0,0.032196
2021/02/11 04:54:00.003,n,258,3.24,3.24,3.6,20.3,70.8,1013.72,0,0,0,0,0.036545
2021/02/11 04:55:00.001,n,249,2.16,2.16,2.52,20.3,70.7,1013.72,0,0,0,0,0.0383